Home   Weather   Al Ain   Past weeks

Flag for United Arab Emirates Past Weather in Al Ain, Abu Dhabi, United Arab Emirates — Yesterday and Last 2 Weeks

Now
104 °F

Passing clouds.


Feels Like: 100 °F
Forecast: 78 / 102 °F
Wind: 7 mph from Northwest

Location: Al Ain International Airport

Current Time: Apr 29, 2017 at 5:40:32 pm

Latest Report: Apr 29, 2017 at 5:00 pm


Visibility: N/A

Pressure: 29.80 "Hg

Humidity: 14%

Dew Point: 46 °F

Location of Al AinLocation

Past Weather in Al Ain — Graph

°F

Al Ain Temperature Yesterday

Maximum temperature yesterday: 106 °F (at 2:00 pm)
Minimum temperature yesterday: 79 °F (at 6:00 am)
Average temperature yesterday: 93 °F

High & Low Weather Summary for the Past Weeks

 TemperatureHumidityPressure
High106 °F (Apr 15, 3:00 pm)100% (Apr 23, 5:00 am)29.92 "Hg (Apr 23, 5:00 am)
Low66 °F (Apr 21, 6:00 am)5% (Apr 25, 5:00 pm)29.71 "Hg (Apr 15, 3:00 pm)
Average89 °F31%29.82 "Hg
* Reported Apr 14 4:00 pm — Apr 29 4:00 pm, Al Ain, Weather by CustomWeather, © 2017

Note: Actual official high and low records may vary slightly from our data, if they occured in-between our weather recording intervals... More about our weather records

Advertising

Al Ain Weather History for the Previous 24 Hours

Scroll right to see more
 ConditionsComfort  
Time TempWeatherWind HumidityBarometerVisibility
4:00 pm
Sat, Apr 29
106 °FPassing clouds.7 mph13%29.80 "HgN/A
3:00 pm104 °FPassing clouds.12 mph15%29.83 "HgN/A
2:00 pm104 °FPassing clouds.12 mph16%29.83 "HgN/A
1:00 pm102 °FPassing clouds.14 mph18%29.86 "HgN/A
12:00 pm100 °FSunny.16 mph21%29.89 "Hg10 mi
11:00 am99 °FClear.18 mph22%29.92 "Hg5 mi
10:00 am95 °FClear.20 mph25%29.92 "Hg5 mi
9:00 am91 °FClear.17 mph30%29.92 "Hg5 mi
8:00 am88 °FClear.20 mph35%29.89 "Hg6 mi
7:00 am88 °FClear.13 mph38%29.89 "Hg6 mi
6:00 am88 °FSunny.14 mph35%29.86 "Hg10 mi
5:00 am88 °FClear.15 mph31%29.83 "Hg10 mi
4:00 am88 °FClear.14 mph31%29.83 "Hg10 mi
3:00 am90 °FClear.5 mph29%29.83 "Hg10 mi
2:00 am88 °FClear.3 mph38%29.83 "Hg10 mi
1:00 am90 °FPassing clouds.5 mph36%29.83 "HgN/A
12:00 am90 °FClear.8 mph36%29.83 "Hg10 mi
11:00 pm
Fri, Apr 28
91 °FPassing clouds.6 mph32%29.83 "HgN/A
10:00 pm93 °FClear.8 mph30%29.83 "Hg10 mi
9:00 pm97 °FClear.7 mph25%29.83 "Hg10 mi
8:00 pm99 °FClear.12 mph22%29.80 "Hg10 mi
7:00 pm100 °FClear.16 mph22%29.80 "Hg10 mi
6:00 pm106 °FPassing clouds.8 mph11%29.77 "HgN/A
5:00 pm106 °FPassing clouds.2 mph12%29.77 "HgN/A
Weather by CustomWeather, © 2017

See weather overviewHow to use our weather pages